Voltar ao catálogo

CZ-4 DEB

AtivoSSO
NORAD 20855·DEBRIS·🇨🇳 China

Lançado Sep 3, 1990 de Taiyuan Satellite Launch Center

Loading…

Próximas Passagens (próximas 24 horas)

TLE

AtualizadoSource: Space-Track

Época: Sep 14, 2026, 10:12 UTC

1 20855U 90081T   26257.42508461 -.00000007  00000-0  20949-4 0  9996
2 20855  98.8408 237.1428 0022905 243.8363 268.7234 14.09189022851870

Acompanhe CZ-4 DEB em tempo real com AllMySat

Download on the App Store